NOAA 16 DEB

Satellite information

Favourite Embed

Satellite Type and Status

DEBRISIN ORBIT

Key statistics

Satellite NOAA 16 DEB at a glance.

Uptime

9215

Days in orbit

Revolutions

≈ 14.5

Per day

Orbit

SSO

Sun Synchronous Orbit

Inclination

99.0

Latest

Satellite identification and parameters

Extended collection of information and parameters for NOAA 16 DEB.

Object identification

Identified? True

Debris? True

Object name: NOAA 16 DEB

International designator: 2000-055JL

Object number (NORAD): 41367

Object ID (CCSDS): 41367

Country: UNITED STATES OF AMERICA (US)

Current information (Y/N): Y

RCS size: SMALL

Orbital parameters

Period: 99.056 minutes

Inclination: 99.0012 deg

SMA: 7091.637 km

Apoapsis: 737.95 km

Periapsis: 689.055 km

RAAN: 191.9074 deg

Eccentricy: 0.00344738

Argument of periapsis: 349.1962 deg

Mean anomaly: 10.8488 deg

Mean motion: 14.5372747 rev/day

Mean motion (dot): 0.00014977 rev/day2

B* drag term: 0.0035509669 1/REarth

Two-line elements (TLE)

Creation date: Dec. 13, 2025, 4:32 a.m.

Reference frame: TEME

Reference center: EARTH

Epoch: Dec. 12, 2025, 12:39 p.m. UTC

TLE line 0: 0 NOAA 16 DEB

TLE line 1: 1 41367U 00055JL 25346.52771595 .00014977 00000-0 35510-2 0 9996

TLE line 2: 2 41367 99.0012 191.9074 0034474 349.1962 10.8488 14.53727470512963

Live tracking on map

Real-time ground track for satellite NOAA 16 DEB.

In-orbit conjunctions

A list of the most updated potential collisions computed for object NOAA 16 DEB.

Target Orbit TCA Probability of collision Miss distance Type
SL-8 R/B LEO 2024-11-26 20:59:01 0.0001650863 183.0 (m) ROCKET BODY
IRIDIUM 911 LEO 2024-11-26 00:35:13 0.0001426727 770.0 (m) PAYLOAD
METEOR 2-5 DEB LEO 2024-11-15 09:54:10 0.0003041114 378.0 (m) DEBRIS
CZ-2D DEB SSO 2024-11-11 01:56:57 0.0002376409 385.0 (m) DEBRIS
COSMOS 2251 DEB LEO 2024-11-09 08:23:47 0.0002596103 766.0 (m) DEBRIS

Associated space launch

The NOAA K, L and M POES satellites begin the fifth generation of improved environmental monitoring in support of NOAA missions. The instrument payload has significant improvements and additions/deletions. The instrument changes have effected the spacecraft subsystems and data formats.

NOAA 16 DEB was lifted into orbit during the mission ‘Titan II SLV | NOAA 16’, on board a Titan II SLV space rocket.

The launch took place on Sept. 21, 2000, 10:22 a.m. from Space Launch Complex 4W.

For more information about the launch, click the button.

Launch to space Titan II SLV | NOAA 16
Titan II SLV | NOAA 16

Agency: N/A

Status: Launch Successful

Launch date: Sept. 21, 2000, 10:22 a.m. UTC

Rocket: Titan II SLV

Launch pad: Space Launch Complex 4W

Location: Vandenberg SFB, CA, USA

...

Latest news about this satellite

There are no fresh news available about this satellite. Check back as we update our databases every day.


Newsletter sign-up

Weekly statistics, charts and insights to help you stay on top of the space industry.